This demonstration page uses our WeatherBlox Daily Observations layout. Learn more.

Left ArrowRight Arrow

Hourly Observations for October 4, 2022

Temp ( °F °C ) Dew Point ( °F °C ) Humidity (%) Winds ( mph kmh ) Pressure ( in mb ) Visibility ( mi km ) Precip ( " mm )
12:53 am 00:53 Mostly Clear 45 7.2 43 6.1 93 93 W 5 7 30.15 1021 10 16 0.00 0.00
1:53 am 01:53 Clear 45 7.2 43 6.1 93 93 WNW 6 9 30.14 1021 10 16 0.00 0.00
2:53 am 02:53 Clear 45 7.2 43 6.1 93 93 SW 5 7 30.13 1020 10 16 0.00 0.00
3:53 am 03:53 Clear 44 6.7 42 5.6 93 93 WNW 5 7 30.13 1020 10 16 0.00 0.00
4:53 am 04:53 Clear 42 5.6 40 4.4 92 92 Calm 30.12 1020 10 16 0.00 0.00
5:53 am 05:53 Clear 41 5 40 4.4 96 96 Calm 30.12 1020 10 16 0.00 0.00
6:53 am 06:53 Clear 41 5 40 4.4 96 96 Calm 30.14 1021 10 16 0.00 0.00
7:53 am 07:53 Sunny 41 5 40 4.4 96 96 Calm 30.15 1021 10 16 0.00 0.00
8:53 am 08:53 Sunny 47 8.3 44 6.7 90 90 Calm 30.16 1021 10 16 0.00 0.00
9:53 am 09:53 Mostly Sunny 53 11.7 46 7.8 77 77 Calm 30.15 1021 10 16 0.00 0.00
10:53 am 10:53 Sunny 59 15 47 8.3 64 64 Calm 30.14 1021 10 16 0.00 0.00
11:53 am 11:53 Sunny 67 19.4 50 10 55 55 SW 12 19 30.11 1020 10 16 0.00 0.00
12:53 pm 12:53 Sunny 73 22.8 49 9.4 42 42 SW 13 20 30.09 1019 10 16 0.00 0.00
1:53 pm 13:53 Sunny 75 23.9 48 8.9 38 38 WSW 10 17 30.07 1018 10 16 0.00 0.00
2:53 pm 14:53 Sunny 76 24.4 48 8.9 37 37 SW 13 20 30.06 1018 10 16 0.00 0.00
3:53 pm 15:53 Sunny 79 26.1 47 8.3 32 32 SW 12 19 30.05 1018 10 16 0.00 0.00
4:53 pm 16:53 Sunny 79 26.1 46 7.8 31 31 SW 10 17 30.05 1018 10 16 0.00 0.00
5:53 pm 17:53 Sunny 77 25 45 7.2 32 32 SW 7 11 30.06 1018 10 16 0.00 0.00
6:53 pm 18:53 Clear 67 19.4 47 8.3 49 49 SSW 9 15 30.08 1019 10 16 0.00 0.00
7:53 pm 19:53 Clear 61 16.1 46 7.8 58 58 S 9 15 30.10 1019 10 16 0.00 0.00
8:53 pm 20:53 Clear 58 14.4 46 7.8 65 65 Calm 30.10 1019 10 16 0.00 0.00
9:53 pm 21:53 Clear 55 12.8 46 7.8 72 72 Calm 30.10 1019 10 16 0.00 0.00
10:53 pm 22:53 Clear 52 11.1 45 7.2 77 77 WNW 8 13 30.11 1020 10 16 0.00 0.00
11:53 pm 23:53 Clear 50 10 44 6.7 80 80 SSW 10 17 30.10 1019 10 16 0.00 0.00

Powered by AerisWeather